Flag for Canada Weather past 2 weeks in Alert, Nunavut Territory, Canada

Now
12 °F

Passing clouds.


Feels Like: 6 °F
Forecast: 6 / 12 °F
Wind: 3 mph from South

Location: Alert Airport

Current Time: Sep 18, 2014 at 9:56:33 AM

Latest Report: Sep 18, 2014 at 9:00 AM


Visibility: 15 mi

Pressure: 30.06 "Hg

Humidity: 85%

Dew point: 9 °F

Location of AlertLocation

Historic Weather in Alert — Graph

°F

Alert temperature yesterday

Maximum temperature yesterday: 19 °F (at 3:00 AM)
Minimum temperature yesterday: 9 °F (at 3:00 PM)
Average temperature yesterday: 15 °F

Past Weeks' High & Low Weather Summary

 TemperatureHumidityPressure
High37 °F (Sep 5, 12:00 PM)100% (Sep 3, 8:00 AM)30.04 "Hg (Sep 3, 8:00 AM)
Low5 °F (Sep 18, 1:00 AM)60% (Sep 5, 10:00 AM)29.36 "Hg (Sep 9, 2:00 PM)
Average21 °F91%29.73 "Hg
* Reported Sep 3 8:00 AM — Sep 18 8:00 AM, Alert, Weather by CustomWeather, © 2014

Note: Actual official high and low records may vary slightly from our data, if they occured in-between our weather recording intervals... More about our weather records

Advertising

Alert weather history for previous 24 hours

 ConditionsComfort  
Time TempWeatherWind HumidityBarometerVisibility
8:00 AM
Sep 18
12 °FPartly sunny.No wind92%30.04 "Hg15 mi
7:00 AM14 °FPartly sunny.No wind85%30.04 "Hg15 mi
6:00 AM12 °FPartly sunny.No wind85%30.03 "Hg15 mi
5:00 AM10 °FPartly cloudy.No wind92%30.04 "Hg15 mi
4:00 AM10 °FPassing clouds.5 mph85%30.04 "Hg15 mi
3:00 AM9 °FPassing clouds.5 mph92%30.04 "Hg15 mi
2:00 AM7 °FPassing clouds.3 mph85%30.02 "Hg15 mi
1:00 AM5 °FPassing clouds.3 mph78%30.02 "Hg15 mi
8:00 PM
Sep 17
16 °FPassing clouds.2 mph79%30.01 "Hg15 mi
7:00 PM14 °FPassing clouds.5 mph79%30.01 "Hg15 mi
6:00 PM10 °FPassing clouds.5 mph79%30.02 "Hg15 mi
5:00 PM16 °FPassing clouds.No wind79%30.02 "Hg15 mi
4:00 PM12 °FPassing clouds.2 mph73%30.01 "Hg15 mi
3:00 PM9 °FPassing clouds.8 mph85%30.01 "Hg15 mi
2:00 PM12 °FPassing clouds.10 mph79%30.00 "Hg15 mi
1:00 PM10 °FPassing clouds.8 mph85%29.99 "Hg15 mi
12:00 PM16 °FPassing clouds.10 mph79%29.98 "Hg15 mi
11:00 AM16 °FPassing clouds.9 mph79%29.99 "Hg15 mi
10:00 AM18 °FPassing clouds.15 mph79%30.00 "Hg15 mi
9:00 AM18 °FScattered clouds.17 mph79%30.00 "Hg15 mi
Weather by CustomWeather, © 2014

See weather overviewHow to use our weather pages